Tracking 19827 objects as of 22-Aug-2019
HD Live streaming from Space Station
objects crossing your sky now

FENGYUN 1C DEB

Track FENGYUN 1C DEB now!
10-day predictions


NORAD ID: 31665
Int'l Code: 1999-025CBX
Perigee: 831.0 km
Apogee: 1,128.0 km
Inclination: 98.5 °
Period: 104.5 minutes
Semi major axis: 7350 km
RCS: 0.0067 m2 (small)
Launch date: May 10, 1999
Source: People's Republic of China (PRC)
Launch site: Taiyaun Space Center, China (TSC)

Note: This is SATELLITE DEBRIS
aabbcc
Your satellite tracking list
Your tracking list is empty




NASA's NSSDC Master Catalog

Two Line Element Set (TLE):
1 31665U 99025CBX 19231.68205792 +.00000225 +00000-0 +22711-3 0  9996
2 31665 098.4742 124.4375 0202014 334.1751 051.2279 13.77622391613722
Source of the keplerian elements: AFSPC